Other Public Products
Issued by NWS Grand Forks, ND

Home | Current Version | Previous Version | Text Only | Print | Product List | Glossary Off
Versions: 1 2 3 4 5 6 7 8 9 10 11 12 13 14 15 16 17 18 19 20 21 22 23 24 25 26 27 28 29 30 31 32 33 34 35 36 37 38 39 40 41 42 43 44 45 46 47 48 49 50

000
FPUS83 KFGF 270231
OPUFGF
PRAIRIE TO PINES WEATHER ROUNDUP
NATIONAL WEATHER SERVICE EASTERN NORTH DAKOTA/GRAND FORKS ND
900 PM CDT SUN APR 26 2015

 **SATELLITE DATA USED TO AUGMENT SKY COVER AT AUTOMATED STATIONS**
 *****  WEATHER ACROSS EASTERN NORTH DAKOTA  *****

CITY           SKY/WX    TMP DP  RH WIND       PRES   REMARKS
GRAND FORKS    FAIR      58  25  28 CALM      30.11R
GRAND FORKS AF FAIR      54  28  37 SE5       30.12R
GRAND CITY NWS   N/A     50 N/A N/A W3          N/A
BUXTON         NOT AVBL
DEVILS LAKE    FAIR      50  43  76 N6        30.13R
FARGO          FAIR      59  23  25 CALM      30.11R
WAHPETON ARPT  FAIR      55  23  28 E3        30.13R
$$

 *****  WEATHER ACROSS CENTRAL AND WESTERN NORTH DAKOTA  *****

CITY           SKY/WX    TMP DP  RH WIND       PRES   REMARKS
JAMESTOWN      FAIR      54  31  41 E7        30.09R
BISMARCK       MOCLDY    52  48  86 NW8       30.12R
MINOT          LGT RAIN  48  45  89 SW7       30.13S
MINOT AFB      DRIZZLE   48  48 100 SW3       30.12S
GARRISON         N/A     48  46  93 CALM      30.13S
WILLISTON      CLOUDY    51  34  52 NW6       30.16R
DICKINSON      CLOUDY    43  41  93 N5        30.13R
HETTINGER      CLOUDY    46  44  93 N8        30.12R FOG
$$

 *****  OTHER OBSERVATIONS NORTHEAST NORTH DAKOTA  *****

CITY           SKY/WX    TMP DP  RH WIND       PRES   REMARKS
WALHALLA       FAIR      57  45  62 W5        30.13R
LANGDON        MOCLDY    52  45  76 NW7       30.14R
CAVALIER       FAIR      55  43  62 NW6       30.13R
GRAFTON        FAIR      55  30  38 SE7       30.12S
CANDO          CLOUDY    48  46  93 NW6       30.15R
FORT TOTTEN    NOT AVBL
ROLLA          CLOUDY    48  48 100 W3        30.14S
RUGBY            N/A    N/A N/A N/A MISG        N/A
 ***** THE ABOVE OBSERVATIONS ARE NON NWS ARE NOT QUALITY
        CONTROLLED AND MAY MIS-REPORT RAIN FOR SNOW...
$$

 *****  OTHER OBSERVATIONS SOUTHEAST NORTH DAKOTA *****

CITY           SKY/WX    TMP DP  RH WIND       PRES   REMARKS
COOPERSTOWN    NOT AVBL
VALLEY CITY    FAIR      52  28  40 SE3       30.12R
OAKES            N/A     50  32  50 E10       30.11R
GWINNER        CLEAR     54  32  43 SE5       30.13R
SHEYENNE NWR     N/A     57  26  30 E3        29.95
BUFFALO        NOT AVBL
WYNDMERE       NOT AVBL
 ***** THE ABOVE OBSERVATIONS ARE NON NWS ARE NOT QUALITY
       CONTROLLED AND MAY MIS-REPORT RAIN FOR SNOW...
$$

  *****  WEATHER ACROSS NORTHERN MINNESOTA  *****

CITY           SKY/WX    TMP DP  RH WIND       PRES   REMARKS
FLAG ISLAND    FAIR      52  25  35 CALM      30.15R
WARROAD        FAIR      45  30  57 E6        30.16S
ROSEAU         FAIR      50  30  46 E8        30.15R
HALLOCK        FAIR      57  19  23 SE6       30.12R
THF RVR FALLS  FAIR      54  21  28 E8        30.15R
HALSTAD          N/A     56  18  22 CALM        N/A
FOSSTON        FAIR      50  23  34 E5        30.15R
BAUDETTE       FAIR      51  21  30 E5        30.15R
WASKISH        FAIR      43  34  70 CALM      30.16R
CROOKSTON      FAIR      61  27  27 NE3       30.14R
$$
  *****  WEATHER ACROSS CENTRAL AND WEST MINNESOTA  *****

CITY           SKY/WX    TMP DP  RH WIND       PRES   REMARKS
BEMIDJI        FAIR      46  24  40 CALM      30.15R
PARK RAPIDS    FAIR      54  19  25 E3        30.13R
WADENA         FAIR      52  21  30 E6        30.14R
DETROIT LAKES  FAIR      57  23  26 SE6       30.14R
MOORHEAD       FAIR      57  27  30 CALM      30.13R
FERGUS FALLS   FAIR      57  14  18 CALM      30.14R
ELBOW LAKE     FAIR      53  27  36 E3        30.13R
MORRIS MN      FAIR      52  21  30 E6        30.12R
STAPLES        FAIR      48  19  32 CALM      30.14R
WHEATON        FAIR      52  25  35 E3        30.14R
$$
  *****  WEATHER ELSEWHERE ACROSS MINNESOTA  *****

CITY           SKY/WX    TMP DP  RH WIND       PRES   REMARKS
DULUTH         FAIR      45  19  35 E5        30.15R
INTRNTL FALLS  FAIR      41  18  39 CALM      30.16R
ELY            FAIR      43  25  49 CALM      30.15R
CLOQUET        FAIR      41  19  42 CALM      30.16R
BRAINERD       FAIR      50  22  33 CALM      30.13R
HIBBING        FAIR      40  18  41 CALM      30.14R
ALEXANDRIA     FAIR      52  19  27 E6        30.13R
SAINT CLOUD    FAIR      54  23  30 NE7       30.12R
MINNEAPOLIS    FAIR      56  23  27 N6        30.10R
$$

  *****  WEATHER ACROSS SOUTH DAKOTA  *****

CITY           SKY/WX    TMP DP  RH WIND       PRES   REMARKS
SIOUX FALLS    FAIR      52  34  50 N6        30.06R
BROOKINGS      FAIR      54  28  37 NE6       30.11R
WATERTOWN      FAIR      54  28  36 E7        30.10R
HURON          PTCLDY    54  33  45 E7        30.07R
SISSETON         N/A     53  26  35 SE6       30.10R
ABERDEEN       PTCLDY    57  32  38 E9        30.09R
MITCHELL       CLEAR     56  38  50 E6        30.07R
PIERRE         CLOUDY    55  32  41 E5        30.06R
MOBRIDGE       CLOUDY    57  34  41 E8        30.06R
RAPID CITY     CLOUDY    49  44  83 CALM      30.08R
$$

  *****  SOME WEATHER IN NEARBY STATES *****

CITY           SKY/WX    TMP DP  RH WIND       PRES   REMARKS
GLASGOW MT     CLOUDY    42  33  70 NW8       30.21S
GREAT FALLS MT CLOUDY    40  31  70 SW5       30.20S
CHEYENNE WY    CLOUDY    38  37  97 SE8       30.05R FOG
SCOTTSBLUFF NE CLOUDY    45  32  60 SE12      30.06R
OMAHA NE       FAIR      57  34  41 NE8       30.03R
DES MOINES IA  FAIR      55  25  31 NE7       30.05R
DAVENPORT IA   FAIR      51  32  48 N6        30.04R
CHICAGO IL     FAIR      45  24  43 N7        30.02R
EAU CLAIRE WI  FAIR      53  23  31 N12       30.09R
LA CROSSE WI   FAIR      53  28  38 N6        30.05R
$$

  *****  SOME NATIONAL WEATHER *****

CITY           SKY/WX    TMP DP  RH WIND       PRES   REMARKS
LA GUARDIA NY  FAIR      55  29  36 NW15G24   29.68R
RALEIGH NC     MOCLDY    49  47  93 CALM      29.78R
ATLANTA GA     FAIR      66  53  63 NW17G23   29.75R
NEW ORLEANS LA MOCLDY    77  68  73 S5        29.73R
OKLAHOMA CITY  LGT RAIN  63  54  72 NE14      29.80R
ALBUQUERQUE NM LGT RAIN  50  39  66 N6        29.80R
SALT LAKE CITY MOCLDY    50  35  56 SE5       30.07R
LOS ANGELES CA PTCLDY    67  49  52 W16       29.88S
BOISE ID       PTCLDY    58  20  22 NW15      30.13S
SEATTLE WA     CLOUDY    57  40  52 SW7       30.23S
$$

*** WEATHER ACROSS MANITOBA...SASKATCHEWAN AND ONTARIO ***
                ***ONTARIO***

CITY           SKY/WX    TMP DP  RH WIND       PRES   REMARKS
GERALDTON      CLEAR     45  28  53 N6        30.16R
THUNDER BAY    CLEAR     48  28  46 N5        30.16R
SIOUX LOOKOUT  PTCLDY    43  27  52 CALM      30.19R
TORONTO        MOCLDY    46  32  57 NW13      29.83S
BIG TROUT LK   CLEAR     39  27  60 E6        30.29S
PICKLE LAKE    PTCLDY    45  25  45 NE8       30.22S
DRYDEN         CLEAR     50  28  43 E5        30.18R
KENORA         PTCLDY    54  16  22 E3        30.18
$$
                *** MANITOBA***

CITY           SKY/WX    TMP DP  RH WIND       PRES   REMARKS
BRANDON        CLOUDY    50  45  81 S9        30.11S
DAUPHIN        CLEAR     48  37  66 W15G21    30.11R
ISLAND LAKE    MOCLDY    46  25  42 E5        30.17S
PILOT MOUND      N/A     52  45  76 W2          N/A
THE PAS        DRIZZLE   39  39 100 W9G17     30.07R FOG
THOMPSON       CLOUDY    45  23  42 NE9       30.13F
WINNIPEG       MOCLDY    55  43  62 NW5       30.13R
CHURCHILL      LGT SNOW  23  23 100 NE9       30.42S WCI  13
GILLAM         CLOUDY    41  27  56 E12       30.26S
$$
                ***SASKATCHEWAN***

CITY           SKY/WX    TMP DP  RH WIND       PRES   REMARKS
ESTEVAN        CLOUDY    46  36  66 NW10      30.16R
KINDERSLEY     MOCLDY    48  25  40 VRB2      30.17R
LLOYDMINSTER   PTCLDY    46  14  27 W5        30.13R
PRINCE ALBERT  CLOUDY    36  32  87 CALM      30.17R
REGINA         CLOUDY    39  34  81 W8        30.20R
YORKTON        CLOUDY    41  36  81 W7        30.15R



USA.gov is the U.S. government's official web portal to all federal, state and local government web resources and services.